Home > Weather > Bautzen > Past weeks

Flag for Germany Past Weather in Bautzen, Saxony, Germany — Yesterday and Last 2 Weeks

Now
55 °F

Clear.


Feels Like: 55 °F
Forecast: 58 / 79 °F
Wind: 2 mph from North

Location: Dresden-Klotzsche

Current Time: May 28, 2016 at 2:08:01 AM

Latest Report: May 28, 2016 at 1:20 AM


Visibility: 5 mi

Pressure: 30.01 "Hg

Humidity: 94%

Dew Point: 54 °F

Location of BautzenLocation

Past Weather in Bautzen — Graph

°F

Bautzen Temperature Yesterday

Maximum temperature yesterday: 70 °F (at 12:50 PM)
Minimum temperature yesterday: 52 °F (at 3:20 AM)
Average temperature yesterday: 61 °F

High & Low Weather Summary for the Past Weeks

 TemperatureHumidityPressure
High82 °F (May 22, 3:50 PM)100% (May 13, 2:50 AM)30.09 "Hg (May 13, 2:50 AM)
Low39 °F (May 15, 4:50 AM)23% (May 22, 3:50 PM)29.45 "Hg (May 13, 3:20 PM)
Average57 °F69%29.90 "Hg
* Reported May 13 12:20 AM — May 28 12:50 AM, Bautzen, Weather by CustomWeather, © 2016

Note: Actual official high and low records may vary slightly from our data, if they occured in-between our weather recording intervals... More about our weather records

Advertising

Bautzen Weather History for the Previous 24 Hours

Scroll right to see more
 ConditionsComfort  
Time TempWeatherWind HumidityBarometerVisibility
12:50 AM
Sat, May 28
55 °FClear.2 mph94%30.01 "Hg5 mi
12:20 AM55 °FClear.3 mph94%30.01 "Hg10 mi
11:50 PM
Fri, May 27
57 °FClear.5 mph94%30.01 "Hg4 mi
11:20 PM57 °FFog.3 mph100%30.01 "Hg2 mi
10:50 PM57 °FFog.2 mph100%30.01 "Hg3 mi
10:20 PM59 °FClear.1 mph94%30.04 "Hg4 mi
9:50 PM59 °FClear.2 mph94%30.04 "Hg6 mi
9:20 PM59 °FSunny.2 mph94%30.04 "Hg10 mi
8:50 PM59 °FSunny.1 mph94%30.04 "Hg10 mi
8:20 PM59 °FSunny.1 mph94%30.01 "Hg10 mi
7:50 PM61 °FScattered clouds.3 mph88%30.01 "HgN/A
7:20 PM61 °FPartly sunny.5 mph88%30.01 "HgN/A
6:50 PM61 °FSunny.6 mph94%30.01 "Hg10 mi
6:20 PM59 °FThunderstorms. Broken clouds.5 mph94%30.04 "HgN/A
5:50 PM59 °FThunderstorms. Broken clouds.14 mph88%30.04 "Hg5 mi
5:20 PM64 °FThunderstorms. Broken clouds.7 mph68%30.01 "HgN/A
4:50 PM66 °FScattered showers. Broken clouds.10 mph60%29.98 "HgN/A
4:20 PM68 °FBroken clouds.9 mph60%29.98 "HgN/A
3:50 PM70 °FBroken clouds.7 mph57%30.01 "HgN/A
3:20 PM70 °FPartly sunny.6 mph57%30.01 "HgN/A
2:50 PM70 °FPartly sunny.7 mph57%30.01 "HgN/A
2:20 PM70 °FPartly sunny.7 mph53%30.01 "HgN/A
1:50 PM70 °FPartly sunny.7 mph53%30.01 "HgN/A
1:20 PM70 °FPartly sunny.6 mph53%30.01 "HgN/A
12:50 PM70 °FPartly sunny.6 mph50%30.01 "HgN/A
12:20 PM68 °FPartly sunny.5 mph53%30.04 "HgN/A
11:50 AM68 °FBroken clouds.3 mph53%30.04 "HgN/A
11:20 AM68 °FPassing clouds.5 mph49%30.04 "HgN/A
10:50 AM66 °FPassing clouds.5 mph56%30.04 "HgN/A
10:20 AM66 °FPassing clouds.5 mph60%30.04 "HgN/A
9:50 AM66 °FPassing clouds.5 mph60%30.04 "HgN/A
9:20 AM64 °FPassing clouds.5 mph64%30.04 "HgN/A
8:50 AM63 °FSunny.2 mph73%30.04 "Hg10 mi
8:20 AM61 °FSunny.2 mph72%30.04 "Hg10 mi
7:50 AM57 °FPartly sunny.1 mph82%30.04 "HgN/A
7:20 AM57 °FPassing clouds.3 mph82%30.04 "HgN/A
6:50 AM55 °FPartly sunny.2 mph88%30.01 "HgN/A
6:20 AM54 °FBroken clouds.5 mph94%30.04 "HgN/A
5:50 AM54 °FPassing clouds.3 mph94%30.04 "HgN/A
5:20 AM52 °FClear.2 mph94%30.01 "Hg10 mi
4:50 AM54 °FClear.3 mph88%30.01 "Hg10 mi
4:20 AM52 °FClear.3 mph94%30.01 "Hg10 mi
3:50 AM52 °FClear.2 mph94%30.01 "Hg10 mi
3:20 AM52 °FClear.2 mph94%30.01 "Hg10 mi
2:50 AM54 °FClear.3 mph88%30.01 "Hg10 mi
2:20 AM54 °FClear.3 mph88%30.04 "Hg10 mi
Weather by CustomWeather, © 2016

See weather overviewHow to use our weather pages